Location: Pella
(41.4080°N, 92.9160°W)
Time: 18:54:44
(UTC-05:00)

ATLAS 5 CENTAUR R/B - Visible Passes

Search period start: 19 September 2014 00:00
Search period end: 29 September 2014 00:00
Orbit: 379 x 390 km, 35.7° (Epoch: 18 September)

Date Brightness Start Highest point End Pass type
(mag) Time Alt. Az. Time Alt. Az. Time Alt. Az.
19 Sep 3.4 20:52:42 10° SSW 20:53:40 15° SSW 20:53:40 15° SSW visible
20 Sep 3.2 19:52:54 10° SSW 19:54:42 14° SSE 19:56:25 10° SE visible
21 Sep 2.5 20:28:15 10° SW 20:30:52 24° S 20:31:05 24° SSE visible
22 Sep 3.3 21:04:11 10° WSW 21:05:33 20° SW 21:05:33 20° SW visible
23 Sep 2.4 20:03:22 10° SW 20:06:06 27° S 20:07:40 18° SE visible
24 Sep 2.5 20:39:11 10° WSW 20:41:45 26° S 20:41:45 26° S visible
25 Sep 2.5 19:38:00 10° WSW 19:40:45 28° S 19:43:31 10° ESE visible
25 Sep 4.0 21:15:14 10° WSW 21:15:41 12° SW 21:15:41 12° SW visible
26 Sep 2.8 20:13:40 10° WSW 20:16:12 22° S 20:17:22 18° SSE visible
27 Sep 3.7 20:49:52 10° SW 20:51:03 13° SSW 20:51:03 13° SSW visible
28 Sep 3.3 19:47:42 10° WSW 19:49:53 18° SSW 19:52:04 10° SSE visible
